EW9167 Weather Reports


Display with metric or nautical units.
time (UTC)temp
F
wind
direction
speed
MPH
gust
MPH
rain 1hr
in
rain 24hr
in
rain mn
in
humidity
%
barometer
mb
20260505003136 65 140 2.0 3.0 0.00 0.00 0.00 51 1012.3
20260505002611 65 141 2.0 3.0 0.00 0.00 0.00 50 1012.3
20260505001132 66 142 0.0 3.0 0.00 0.00 0.00 49 1012.3
20260505000134 66 154 1.0 3.0 0.00 0.00 0.00 48 1011.9
20260504235135 67 148 1.0 4.0 0.00 0.00 0.00 47 1011.9
20260504234135 68 127 2.0 3.0 0.00 0.00 0.00 45 1011.9
20260504233133 69 256 1.0 3.0 0.00 0.00 0.00 44 1011.9
20260504232624 70 139 0.0 2.0 0.00 0.00 0.00 43 1011.9
20260504231133 71 132 2.0 2.0 0.00 0.00 0.00 41 1011.9
20260504230135 72 158 0.0 4.0 0.00 0.00 0.00 39 1011.9
20260504225130 72 217 0.0 5.0 0.00 0.00 0.00 39 1011.6
20260504224130 73 210 3.0 8.0 0.00 0.00 0.00 38 1011.9
20260504224100 74 162 2.0 6.0 0.00 0.00 0.00 38 1011.9
20260504222131 74 199 5.0 10.0 0.00 0.00 0.00 36 1011.9
20260504221130 76 169 3.0 9.0 0.00 0.00 0.00 33 1011.9
20260504220133 78 250 5.0 8.0 0.00 0.00 0.00 33 1011.9
20260504215133 79 288 2.0 11.0 0.00 0.00 0.00 32 1011.9
20260504214135 80 220 1.0 6.0 0.00 0.00 0.00 31 1012.3
20260504213132 80 237 0.0 8.0 0.00 0.00 0.00 32 1012.3
20260504212132 80 186 2.0 10.0 0.00 0.00 0.00 32 1012.3
20260504211135 80 224 3.0 8.0 0.00 0.00 0.00 30 1012.3
20260504210131 81 232 4.0 7.0 0.00 0.00 0.00 32 1012.3
20260504205134 80 166 2.0 7.0 0.00 0.00 0.00 31 1012.3
20260504204135 80 181 0.0 10.0 0.00 0.00 0.00 31 1012.3
20260504203132 80 247 0.0 9.0 0.00 0.00 0.00 33 1012.3
20260504202134 80 213 8.0 9.0 0.00 0.00 0.00 31 1012.3
20260504201133 80 217 5.0 7.0 0.00 0.00 0.00 34 1012.6
20260504200135 80 157 1.0 11.0 0.00 0.00 0.00 30 1012.6
20260504195139 80 231 6.0 15.0 0.00 0.00 0.00 30 1012.6
20260504194149 80 101 0.0 7.0 0.00 0.00 0.00 30 1012.6
20260504193133 80 249 2.0 9.0 0.00 0.00 0.00 32 1012.9
20260504192138 79 197 3.0 8.0 0.00 0.00 0.00 31 1012.9
20260504191135 78 185 0.0 10.0 0.00 0.00 0.00 33 1013.3
20260504190139 77 110 1.0 7.0 0.00 0.00 0.00 35 1012.9
20260504190054 77 225 6.0 11.0 0.00 0.00 0.00 33 1013.3
20260504184137 77 165 2.0 9.0 0.00 0.00 0.00 32 1013.3
20260504183136 77 180 2.0 7.0 0.00 0.00 0.00 37 1013.6
20260504182133 77 250 4.0 9.0 0.00 0.00 0.00 33 1013.6
20260504181131 76 273 0.0 8.0 0.00 0.00 0.00 36 1013.6
20260504180131 76 208 1.0 9.0 0.00 0.00 0.00 34 1014.0
20260504175131 76 200 2.0 6.0 0.00 0.00 0.00 34 1014.3
20260504174134 75 159 1.0 9.0 0.00 0.00 0.00 33 1014.3
20260504173133 74 218 4.0 6.0 0.00 0.00 0.00 36 1014.6
20260504172135 73 201 2.0 8.0 0.00 0.00 0.00 35 1014.3
20260504171135 73 11 2.0 6.0 0.00 0.00 0.00 36 1014.6
20260504170134 73 201 7.0 8.0 0.00 0.00 0.00 34 1015.0
20260504160134 71 226 7.0 11.0 0.00 0.00 0.00 35 1015.3
20260504151135 69 224 4.0 6.0 0.00 0.00 0.00 47 1016.0
20260504150134 68 227 3.0 7.0 0.00 0.00 0.00 47 1016.0
20260504140131 64 276 0.0 8.0 0.00 0.00 0.00 51 1016.3
20260504130133 60 214 3.0 9.0 0.00 0.00 0.00 60 1016.7
20260504120132 54 169 2.0 5.0 0.00 0.00 0.00 74 1016.7
20260504110133 49 138 3.0 3.0 0.00 0.00 0.00 80 1017.3
20260504100134 47 149 2.0 3.0 0.00 0.00 0.00 77 1017.3
20260504090125 48 140 2.0 5.0 0.00 0.00 0.00 74 1017.3
20260504081119 46 125 2.0 3.0 0.00 0.00 0.00 73 1017.3
20260504080117 45 134 2.0 3.0 0.00 0.00 0.00 72 1017.3
20260504070105 46 129 2.0 4.0 0.00 0.00 0.00 70 1017.0
20260504060105 46 122 1.0 3.0 0.00 0.00 0.00 68 1017.0
20260504045103 48 129 2.0 3.0 0.00 0.00 0.00 64 1017.0
20260504044104 48 155 2.0 4.0 0.00 0.00 0.00 63 1016.7
20260504043104 48 195 2.0 4.0 0.00 0.00 0.00 64 1016.7
20260504042104 48 123 2.0 3.0 0.00 0.00 0.00 63 1016.7
20260504041546 48 137 2.0 4.0 0.00 0.00 0.00 64 1017.0
20260504040104 48 137 0.0 2.0 0.00 0.00 0.00 63 1016.7
20260504035107 48 131 2.0 3.0 0.00 0.00 0.00 62 1016.7
20260504034104 48 127 2.0 3.0 0.00 0.00 0.00 61 1016.3
20260504033104 48 127 2.0 2.0 0.00 0.00 0.00 60 1016.3
20260504032103 48 136 2.0 2.0 0.00 0.00 0.00 60 1016.3
20260504031104 49 128 2.0 3.0 0.00 0.00 0.00 57 1016.3
20260504030549 49 126 2.0 2.0 0.00 0.00 0.00 56 1016.3
20260504025555 50 127 2.0 3.0 0.00 0.00 0.00 55 1016.7
20260504024458 50 134 1.0 3.0 0.00 0.00 0.00 53 1016.3
20260504024244 50 124 2.0 3.0 0.00 0.00 0.00 55 1016.3
20260504022106 51 187 1.0 3.0 0.00 0.00 0.00 53 1016.3
20260504021104 51 108 1.0 3.0 0.00 0.00 0.00 53 1016.3
20260504020104 50 157 2.0 3.0 0.00 0.00 0.00 52 1016.3
20260504015103 50 139 2.0 4.0 0.00 0.00 0.00 52 1016.3
20260504014948 51 126 2.0 3.0 0.00 0.00 0.00 50 1016.0
20260504014244 51 128 2.0 3.0 0.00 0.00 0.00 51 1016.0
20260504012104 51 143 2.0 3.0 0.00 0.00 0.00 51 1016.0
20260504011100 51 117 2.0 2.0 0.00 0.00 0.00 51 1015.6
20260504010100 51 122 2.0 2.0 0.00 0.00 0.00 50 1015.6
20260504005100 52 133 2.0 2.0 0.00 0.00 0.00 48 1015.6